weather.gov     
National Weather Service

Regional Weather Roundup
NWS Homepage
This page is being discontinued on March 12, 2014.
The same data is available at this site. Please update your bookmarks.
Thank you, and we apologize for the inconvenience.
Please send an email to SR-SRH.Webmaster@noaa.gov with any concerns.


Current Version
Previous Version:    01  02  03  04  05  06  07  08  09  10  11  12  13  14  15  16  17  18  19  20  21  22  23  24  25  26  27  28  29  30  
   31  32  33  34  35  36  37  38  39  40  41  42  43  44  45  46  47  48  49  50  51  52  53  54  55  56  57  58  59  60  
[Printable]
314
ASUS44 KFWD 260815
RWRTX
NORTH TEXAS HOURLY WEATHER ROUNDUP
NATIONAL WEATHER SERVICE FORT WORTH TX
200 AM CST MON JAN 26 2015

NOTE: "FAIR" INDICATES FEW OR NO CLOUDS BELOW 12,000 FEET WITH NO
SIGNIFICANT WEATHER AND/OR OBSTRUCTIONS TO VISIBILITY.

TXZ118-119-260900-
DALLAS/FORT WORTH METROPLEX

CITY           SKY/WX    TMP DP  RH WIND       PRES   REMARKS
DFW AIRPORT    CLEAR     42  26  53 NW8       30.19F WCI  37
DALLAS LOVE    CLEAR     42  29  59 CALM      30.21R
FTW MEACHAM    CLEAR     46  26  45 W3        30.20F
DAL-EXECUTIVE  CLEAR     46  26  45 NW6       30.19S
FTW-ALLIANCE   CLEAR     35  26  69 CALM      30.20S
FTW-SPINKS     CLEAR     33  28  81 CALM      30.22S
ARLINGTON      CLEAR     40  25  55 CALM      30.20F
GRAND PRAIRIE  CLEAR     47  28  47 NW3       30.22S
ADDISON        CLEAR     44  30  58 CALM      30.22S
MESQUITE       CLEAR     41  30  64 W6        30.21R WCI  37
LANCASTER      CLEAR     38  26  62 W5        30.22S WCI  34
$$

TXZ091>094-102>105-117-120-121-131>134-260900-
NORTH CENTRAL TEXAS

CITY           SKY/WX    TMP DP  RH WIND       PRES   REMARKS
SHRMAN/DENISON CLEAR     35  31  85 CALM      30.22R
GAINESVILLE    CLEAR     35  28  77 W3        30.23R
BOWIE          CLEAR     38  27  64 NW3       30.20S
BRIDGEPORT     CLEAR     35  27  73 W3        30.23F
DECATUR        CLEAR     44  24  46 CALM      30.21S
DENTON         CLEAR     37  27  67 NW3       30.21R
MCKINNEY       CLEAR     40  28  62 N5        30.20S WCI  37
GREENVILLE     CLEAR     41  30  65 W6        30.20R WCI  37
ROCKWALL       CLEAR     43  30  61 W6        30.19S WCI  39
TERRELL        CLEAR     44  30  57 NW7       30.20S
WAXAHACHIE     CLEAR     43  28  56 W5        30.22S
CLEBURNE       CLEAR     41  27  56 NW7       30.22F WCI  36
GRANBURY       CLEAR     38  30  73 CALM      30.23F
$$

TXZ083>090-098>101-113>116-127>130-139>142-154-155-260900-
WESTERN NORTH TEXAS

CITY           SKY/WX    TMP DP  RH WIND       PRES   REMARKS
WICHITA FALLS  CLEAR     39  26  59 W3        30.21S
WF-KICKAPOO    CLEAR    N/A N/A N/A SW6       30.23S
VERNON         MOCLDY    38  29  69 CALM      30.22S
ABILENE        CLEAR     42  29  59 SW7       30.24F WCI  38
ABILENE-DYESS  CLEAR     46  31  57 SW7       30.23F
BRECKENRIDGE   CLEAR     40  31  70 S3        30.23S
GRAHAM         PTCLDY    32  29  90 CALM      30.21S
MINERAL WELLS  CLEAR     37  28  70 CALM      30.21S
STEPHENVILLE   CLEAR     42  30  61 CALM      30.24S
COMANCHE       CLEAR     50  32  49 W6        30.22F
BROWNWOOD      PTCLDY    36  32  87 CALM      30.24S
COLEMAN        CLEAR     44  32  63 CALM      30.24S
BRADY          CLEAR     39  32  75 W7        30.22S WCI  34
$$

TXZ143>147-156>162-174-175-260900-
CENTRAL TEXAS

CITY           SKY/WX    TMP DP  RH WIND       PRES   REMARKS
WACO           CLEAR     37  30  75 CALM      30.21S
WACO-MCGREGOR  CLEAR     46  28  49 NW9       30.22S
HILLSBORO      CLEAR     41  27  58 N5        30.21S WCI  38
CORSICANA      CLEAR     40  28  62 NW8       30.21S WCI  34
MEXIA          CLEAR     45  29  53 NW8       30.19F
HEARNE         CLEAR     39  32  75 CALM      30.21S
CAMERON        CLEAR     45  33  64 NW5       30.21S
TEMPLE         CLEAR     39  28  65 NW5       30.21R WCI  36
KILLEEN        CLEAR     53  29  40 NW7       30.21S
KILLEEN-SKYLRK CLEAR     45  28  53 NW6       30.19R
FORT HOOD      CLEAR     48  31  51 MISG      30.21R
GATESVILLE     CLEAR     39  32  75 CALM      30.24S
HAMILTON       CLEAR     43  31  62 NW7       30.22F WCI  39
LAMPASAS       CLEAR     50  33  50 N5        30.21S
$$

TXZ095>097-106>112-122>126-135>138-148>153-164>167-260900-
EAST TEXAS

CITY           SKY/WX    TMP DP  RH WIND       PRES   REMARKS
PARIS          CLEAR     39  28  65 NW6       30.17R WCI  35
SULPHUR SPRNGS CLEAR     42  32  66 NW7       30.20R WCI  38
MOUNT PLEASANT CLEAR     44  32  63 NW8       30.18R WCI  39
GILMER         CLEAR     44  30  59 W7        30.17R WCI  39
MINEOLA        CLEAR     43  32  65 W3        30.19S
TYLER          CLEAR     43  29  57 NW6       30.17S WCI  39
LONGVIEW       CLEAR     44  30  57 NW8       30.15S WCI  39
MARSHALL       CLEAR     48  34  58 NW7       30.16S
ATHENS         CLEAR     45  28  53 N3        30.18S
PALESTINE      CLEAR     42  31  64 NW5       30.20S WCI  39
HENDERSON      CLEAR     42  30  62 CALM      30.17R
NACOGDOCHES    CLEAR     43  27  52 N7        30.17R WCI  39
LUFKIN         CLEAR     48  29  47 NW6       30.16R
$$

SUPPLEMENTAL OBSERVATIONS (CENTRAL)

CITY           SKY/WX    TMP DP  RH WIND       PRES   REMARKS
LAKE TEXOMA      N/A     45  32  61 W8          N/A
PAT MAYSE LAKE   N/A     39  32  75 W3          N/A
GREENVILLE       N/A     39  30  70 W7          N/A  WCI  34
CEDAR HILL       N/A     39  27  60 SE1         N/A
ATHENS           N/A     43  30  61 NW1         N/A
PALESTINE        N/A     45  28  53 NW3         N/A
LAKE LIMESTONE   N/A     43  28  56 NW2         N/A
MCGREGOR         N/A     45  32  61 NW2         N/A
TEMPLE           N/A     48  32  53 NW3         N/A
$$

SUPPLEMENTAL OBSERVATIONS (WEST)

CITY           SKY/WX    TMP DP  RH WIND       PRES   REMARKS
MILLERS CREEK    N/A     39  32  75 SW2         N/A
POSSUM KINGDOM   N/A     45  30  57 W6          N/A
GRANBURY         N/A     37  30  75 W1          N/A
COMANCHE         N/A     48  28  46 W7          N/A
HAMBY            N/A     37  30  75 SE3         N/A
IVIE RESERVOIR   N/A     41  32  70 NW6         N/A  WCI  37
COLORADO BEND    N/A     45  30  57 N7          N/A
$$

SUPPLEMENTAL OBSERVATIONS (EAST)

CITY           SKY/WX    TMP DP  RH WIND       PRES   REMARKS
CLARKSVILLE      N/A     39  32  75 W3          N/A
TEXARKANA        N/A     45  32  61 NW6         N/A
LINDEN           N/A     43  32  65 W3          N/A
GILMER           N/A     45  30  57 NW5         N/A
HENDERSON        N/A     43  28  56 NW2         N/A
N SABINE NF      N/A     45  30  57 MISG        N/A
S SABINE NF      N/A     48  30  49 NW5         N/A
$$

SUPPLEMENTAL OBSERVATIONS ARE A COLLECTION OF AUTOMATED INSTRUMENTS
THAT ARE MAINTAINED BY A VARIETY OF FEDERAL AND STATE AGENCIES.
CERTAIN ELEMENTS...SUCH AS HUMIDITY VALUES AND SUSTAINED WIND
SPEEDS...MAY BE APPROXIMATED.





U.S. Dept. of Commerce
NOAA National Weather Service
1325 East West Highway
Silver Spring, MD 20910
E-mail: w-nws.webmaster@noaa.gov
Page last modified: May 16, 2007
NATIONAL WEATHER SERVICE: for Safety, for Work, for Fun - FOR LIFE